sat.trackr.live / text

‹ back to catalog

METEOR-M2 3

NORAD 57166 · 2023-091A

PAYLOAD ACTIVE UNKNOWN

§ Identity

Operator
Country
CIS
Launch date
2023-06-27
Launch site
VOSTO
Launch vehicle
Mass (kg)
RCS (m²)

Purposes: earth_obs

External: N2YO · Heavens-Above · Gunter

§ Orbital elements

Epoch: 2026-09-19T22:51:20.054016Z

Period
101.12 min
Inclination
98.5988°
Eccentricity
0.0002870
Mean motion
14.24052716 rev/d
Perigee alt
809.6 km
Apogee alt
813.7 km
Semi-major
7,189.8 km
B*
7.2739e-6
RAAN
315.9452°
Arg perigee
248.0097°
Mean anomaly
112.0777°
Rev number
16,800

§ Raw data

METEOR-M2 31 57166U 23091A   26262.95231544 -.00000026  00000+0  72739-5 0  99922 57166  98.5988 315.9452 0002870 248.0097 112.0777 14.24052716168002

JSON: /api/v1/satellites/57166 · /tle

For live sub-satellite position, see the globe view (requires WebGL).

§ Visibility from observer

Set your observer location to see the next 7 days of passes ≥ 10°. The values pass through the URL so the page stays shareable.

No JS? Fill the form by hand. The geolocation button needs JavaScript.

§ Radio — SatNOGS DB

ModeDescriptionDownlinkUplink
BPSK HRPT 1.700 GHz
FSK LRPT IQ recording usage 137.900 MHz
FSK LRPT IQ recording usage 137.100 MHz
LRPT LRPT S-E RHCP D 72 kbps 137.900 MHz
LRPT LRPT S-E RHCP D 72 kbps 137.100 MHz
LRPT LRPT S-E RHCP D 80 kbps 137.913 MHz
LRPT LRPT S-E RHCP D 80 kbps 137.100 MHz
LRPT LRPT S-E RHCP D 80 kbps 137.900 MHz
FM Raw X-Band 8.320 GHz
FM Raw X-Band 8.128 GHz
FM S-Band TLM 3.405 GHz
BPSK SARSAT L-Band 1.545 GHz

12 transmitters · refreshed weekly from db.satnogs.org